Year,Month,Day,Hour,Minute,Value (Times are PST for temperature in C)
2009,08,24,00,00,12.20
2009,08,24,00,01,12.20
2009,08,24,00,02,12.20
2009,08,24,00,03,12.20
2009,08,24,00,04,12.10
2009,08,24,00,05,12.10
2009,08,24,00,06,12.10
2009,08,24,00,07,12.00
2009,08,24,00,08,12.00
2009,08,24,00,09,12.00
2009,08,24,00,10,12.00
2009,08,24,00,11,11.90
2009,08,24,00,12,11.90
2009,08,24,00,13,11.90
2009,08,24,00,14,11.90
2009,08,24,00,15,11.80
2009,08,24,00,16,11.80
2009,08,24,00,17,11.80
2009,08,24,00,18,11.80
2009,08,24,00,19,11.80
2009,08,24,00,20,11.80
2009,08,24,00,21,11.80
2009,08,24,00,22,11.70
2009,08,24,00,23,11.70
2009,08,24,00,24,11.70
2009,08,24,00,25,11.70
2009,08,24,00,26,11.70
2009,08,24,00,27,11.70
2009,08,24,00,28,11.70
2009,08,24,00,29,11.70
2009,08,24,00,30,11.70
2009,08,24,00,31,11.70
2009,08,24,00,32,11.70
2009,08,24,00,33,11.70
2009,08,24,00,34,11.70
2009,08,24,00,35,11.70
2009,08,24,00,36,11.70
2009,08,24,00,37,11.70
2009,08,24,00,38,11.70
2009,08,24,00,39,11.70
2009,08,24,00,40,11.60
2009,08,24,00,41,11.60
2009,08,24,00,42,11.60
2009,08,24,00,43,11.60
2009,08,24,00,44,11.50
2009,08,24,00,45,11.50
2009,08,24,00,46,11.50
2009,08,24,00,47,11.40
2009,08,24,00,48,11.40
2009,08,24,00,49,11.40
2009,08,24,00,50,11.40
2009,08,24,00,51,11.40
2009,08,24,00,52,11.30
2009,08,24,00,53,11.30
2009,08,24,00,54,11.30
2009,08,24,00,55,11.30
2009,08,24,00,56,11.30
2009,08,24,00,57,11.30
2009,08,24,00,58,11.30
2009,08,24,00,59,11.30
2009,08,24,01,00,11.30
2009,08,24,01,01,11.30
2009,08,24,01,02,11.30
2009,08,24,01,03,11.30
2009,08,24,01,04,11.30
2009,08,24,01,05,11.30
2009,08,24,01,06,11.30
2009,08,24,01,07,11.30
2009,08,24,01,08,11.30
2009,08,24,01,09,11.30
2009,08,24,01,10,11.30
2009,08,24,01,11,11.30
2009,08,24,01,12,11.30
2009,08,24,01,13,11.30
2009,08,24,01,14,11.20
2009,08,24,01,15,11.20
2009,08,24,01,16,11.20
2009,08,24,01,17,11.20
2009,08,24,01,18,11.20
2009,08,24,01,19,11.10
2009,08,24,01,20,11.10
2009,08,24,01,21,11.10
2009,08,24,01,22,11.10
2009,08,24,01,23,11.00
2009,08,24,01,24,11.00
2009,08,24,01,25,11.00
2009,08,24,01,26,10.90
2009,08,24,01,27,10.90
2009,08,24,01,28,10.90
2009,08,24,01,29,10.90
2009,08,24,01,30,10.80
2009,08,24,01,31,10.80
2009,08,24,01,32,10.80
2009,08,24,01,33,10.80
2009,08,24,01,34,10.80
2009,08,24,01,35,10.80
2009,08,24,01,36,10.80
2009,08,24,01,37,10.80
2009,08,24,01,38,10.80
2009,08,24,01,39,10.80
2009,08,24,01,40,10.80
2009,08,24,01,41,10.80
2009,08,24,01,42,10.80
2009,08,24,01,43,10.80
2009,08,24,01,44,10.80
2009,08,24,01,45,10.80
2009,08,24,01,46,10.80
2009,08,24,01,47,10.80
2009,08,24,01,48,10.80
2009,08,24,01,49,10.80
2009,08,24,01,50,10.80
2009,08,24,01,51,10.80
2009,08,24,01,52,10.80
2009,08,24,01,53,10.80
2009,08,24,01,54,10.70
2009,08,24,01,55,10.70
2009,08,24,01,56,10.70
2009,08,24,01,57,10.70
2009,08,24,01,58,10.70
2009,08,24,01,59,10.70
2009,08,24,02,00,10.70
2009,08,24,02,01,10.70
2009,08,24,02,02,10.70
2009,08,24,02,03,10.70
2009,08,24,02,04,10.70
2009,08,24,02,05,10.70
2009,08,24,02,06,10.70
2009,08,24,02,07,10.70
2009,08,24,02,08,10.60
2009,08,24,02,09,10.60
2009,08,24,02,10,10.60
2009,08,24,02,11,10.60
2009,08,24,02,12,10.60
2009,08,24,02,13,10.60
2009,08,24,02,14,10.60
2009,08,24,02,15,10.60
2009,08,24,02,16,10.60
2009,08,24,02,17,10.60
2009,08,24,02,18,10.60
2009,08,24,02,19,10.60
2009,08,24,02,20,10.60
2009,08,24,02,21,10.50
2009,08,24,02,22,10.50
2009,08,24,02,23,10.50
2009,08,24,02,24,10.40
2009,08,24,02,25,10.40
2009,08,24,02,26,10.40
2009,08,24,02,27,10.40
2009,08,24,02,28,10.40
2009,08,24,02,29,10.40
2009,08,24,02,30,10.40
2009,08,24,02,31,10.40
2009,08,24,02,32,10.40
2009,08,24,02,33,10.40
2009,08,24,02,34,10.30
2009,08,24,02,35,10.30
2009,08,24,02,36,10.30
2009,08,24,02,37,10.30
2009,08,24,02,38,10.30
2009,08,24,02,39,10.30
2009,08,24,02,40,10.30
2009,08,24,02,41,10.30
2009,08,24,02,42,10.30
2009,08,24,02,43,10.30
2009,08,24,02,44,10.30
2009,08,24,02,45,10.20
2009,08,24,02,46,10.20
2009,08,24,02,47,10.20
2009,08,24,02,48,10.20
2009,08,24,02,49,10.20
2009,08,24,02,50,10.20
2009,08,24,02,51,10.20
2009,08,24,02,52,10.20
2009,08,24,02,53,10.10
2009,08,24,02,54,10.10
2009,08,24,02,55,10.10
2009,08,24,02,56,10.10
2009,08,24,02,57,10.00
2009,08,24,02,58,10.00
2009,08,24,02,59,9.90
2009,08,24,03,00,9.90
2009,08,24,03,01,9.90
2009,08,24,03,02,9.90
2009,08,24,03,03,9.90
2009,08,24,03,04,9.80
2009,08,24,03,05,9.80
2009,08,24,03,06,9.80
2009,08,24,03,07,9.80
2009,08,24,03,08,9.80
2009,08,24,03,09,9.80
2009,08,24,03,10,9.80
2009,08,24,03,11,9.70
2009,08,24,03,12,9.70
2009,08,24,03,13,9.70
2009,08,24,03,14,9.70
2009,08,24,03,15,9.70
2009,08,24,03,16,9.60
2009,08,24,03,17,9.60
2009,08,24,03,18,9.60
2009,08,24,03,19,9.60
2009,08,24,03,20,9.50
2009,08,24,03,21,9.50
2009,08,24,03,22,9.50
2009,08,24,03,23,9.40
2009,08,24,03,24,9.40
2009,08,24,03,25,9.40
2009,08,24,03,26,9.40
2009,08,24,03,27,9.30
2009,08,24,03,28,9.30
2009,08,24,03,29,9.30
2009,08,24,03,30,9.30
2009,08,24,03,31,9.30
2009,08,24,03,32,9.30
2009,08,24,03,33,9.30
2009,08,24,03,34,9.30
2009,08,24,03,35,9.30
2009,08,24,03,36,9.30
2009,08,24,03,37,9.30
2009,08,24,03,38,9.30
2009,08,24,03,39,9.30
2009,08,24,03,40,9.30
2009,08,24,03,41,9.30
2009,08,24,03,42,9.30
2009,08,24,03,43,9.30
2009,08,24,03,44,9.30
2009,08,24,03,45,9.30
2009,08,24,03,46,9.30
2009,08,24,03,47,9.30
2009,08,24,03,48,9.30
2009,08,24,03,49,9.30
2009,08,24,03,50,9.30
2009,08,24,03,51,9.30
2009,08,24,03,52,9.30
2009,08,24,03,53,9.30
2009,08,24,03,54,9.20
2009,08,24,03,55,9.20
2009,08,24,03,56,9.20
2009,08,24,03,57,9.20
2009,08,24,03,58,9.20
2009,08,24,03,59,9.10
2009,08,24,04,00,9.10
2009,08,24,04,01,9.10
2009,08,24,04,02,9.10
2009,08,24,04,03,9.10
2009,08,24,04,04,9.10
2009,08,24,04,05,9.00
2009,08,24,04,06,9.00
2009,08,24,04,07,9.00
2009,08,24,04,08,9.00
2009,08,24,04,09,9.00
2009,08,24,04,10,9.00
2009,08,24,04,11,9.00
2009,08,24,04,12,9.00
2009,08,24,04,13,9.00
2009,08,24,04,14,9.00
2009,08,24,04,15,9.00
2009,08,24,04,16,8.90
2009,08,24,04,17,8.90
2009,08,24,04,18,8.90
2009,08,24,04,19,8.90
2009,08,24,04,20,8.90
2009,08,24,04,21,8.90
2009,08,24,04,22,8.90
2009,08,24,04,23,8.90
2009,08,24,04,24,8.90
2009,08,24,04,25,8.90
2009,08,24,04,26,8.80
2009,08,24,04,27,8.80
2009,08,24,04,28,8.80
2009,08,24,04,29,8.80
2009,08,24,04,30,8.80
2009,08,24,04,31,8.80
2009,08,24,04,32,8.80
2009,08,24,04,33,8.70
2009,08,24,04,34,8.70
2009,08,24,04,35,8.70
2009,08,24,04,36,8.70
2009,08,24,04,37,8.70
2009,08,24,04,38,8.70
2009,08,24,04,39,8.70
2009,08,24,04,40,8.70
2009,08,24,04,41,8.70
2009,08,24,04,42,8.70
2009,08,24,04,43,8.70
2009,08,24,04,44,8.70
2009,08,24,04,45,8.70
2009,08,24,04,46,8.70
2009,08,24,04,47,8.70
2009,08,24,04,48,8.70
2009,08,24,04,49,8.70
2009,08,24,04,50,8.70
2009,08,24,04,51,8.70
2009,08,24,04,52,8.70
2009,08,24,04,53,8.80
2009,08,24,04,54,8.80
2009,08,24,04,55,8.80
2009,08,24,04,56,8.80
2009,08,24,04,57,8.80
2009,08,24,04,58,8.80
2009,08,24,04,59,8.70
2009,08,24,05,00,8.70
2009,08,24,05,01,8.70
2009,08,24,05,02,8.70
2009,08,24,05,03,8.70
2009,08,24,05,04,8.70
2009,08,24,05,05,8.70
2009,08,24,05,06,8.70
2009,08,24,05,07,8.70
2009,08,24,05,08,8.70
2009,08,24,05,09,8.60
2009,08,24,05,10,8.60
2009,08,24,05,11,8.60
2009,08,24,05,12,8.60
2009,08,24,05,13,8.60
2009,08,24,05,14,8.60
2009,08,24,05,15,8.60
2009,08,24,05,16,8.60
2009,08,24,05,17,8.60
2009,08,24,05,18,8.60
2009,08,24,05,19,8.60
2009,08,24,05,20,8.60
2009,08,24,05,21,8.60
2009,08,24,05,22,8.60
2009,08,24,05,23,8.60
2009,08,24,05,24,8.50
2009,08,24,05,25,8.50
2009,08,24,05,26,8.50
2009,08,24,05,27,8.50
2009,08,24,05,28,8.50
2009,08,24,05,29,8.50
2009,08,24,05,30,8.50
2009,08,24,05,31,8.50
2009,08,24,05,32,8.40
2009,08,24,05,33,8.40
2009,08,24,05,34,8.40
2009,08,24,05,35,8.40
2009,08,24,05,36,8.40
2009,08,24,05,37,8.40
2009,08,24,05,38,8.40
2009,08,24,05,39,8.40
2009,08,24,05,40,8.40
2009,08,24,05,41,8.40
2009,08,24,05,42,8.40
2009,08,24,05,43,8.40
2009,08,24,05,44,8.40
2009,08,24,05,45,8.40
2009,08,24,05,46,8.30
2009,08,24,05,47,8.30
2009,08,24,05,48,8.30
2009,08,24,05,49,8.30
2009,08,24,05,50,8.30
2009,08,24,05,51,8.30
2009,08,24,05,52,8.30
2009,08,24,05,53,8.30
2009,08,24,05,54,8.30
2009,08,24,05,55,8.30
2009,08,24,05,56,8.30
2009,08,24,05,57,8.30
2009,08,24,05,58,8.30
2009,08,24,05,59,8.30
2009,08,24,06,00,8.30
2009,08,24,06,01,8.30
2009,08,24,06,02,8.30
2009,08,24,06,03,8.30
2009,08,24,06,04,8.30
2009,08,24,06,05,8.30
2009,08,24,06,06,8.30
2009,08,24,06,07,8.30
2009,08,24,06,08,8.30
2009,08,24,06,09,8.30
2009,08,24,06,10,8.30
2009,08,24,06,11,8.30
2009,08,24,06,12,8.30
2009,08,24,06,13,8.30
2009,08,24,06,14,8.30
2009,08,24,06,15,8.30
2009,08,24,06,16,8.30
2009,08,24,06,17,8.30
2009,08,24,06,18,8.30
2009,08,24,06,19,8.30
2009,08,24,06,20,8.30
2009,08,24,06,21,8.30
2009,08,24,06,22,8.30
2009,08,24,06,23,8.30
2009,08,24,06,24,8.20
2009,08,24,06,25,8.20
2009,08,24,06,26,8.20
2009,08,24,06,27,8.20
2009,08,24,06,28,8.20
2009,08,24,06,29,8.20
2009,08,24,06,30,8.20
2009,08,24,06,31,8.10
2009,08,24,06,32,8.10
2009,08,24,06,33,8.10
2009,08,24,06,34,8.10
2009,08,24,06,35,8.10
2009,08,24,06,36,8.10
2009,08,24,06,37,8.10
2009,08,24,06,38,8.10
2009,08,24,06,39,8.10
2009,08,24,06,40,8.10
2009,08,24,06,41,8.10
2009,08,24,06,42,8.00
2009,08,24,06,43,8.00
2009,08,24,06,44,8.00
2009,08,24,06,45,7.90
2009,08,24,06,46,7.90
2009,08,24,06,47,7.90
2009,08,24,06,48,7.90
2009,08,24,06,49,7.90
2009,08,24,06,50,7.80
2009,08,24,06,51,7.80
2009,08,24,06,52,7.80
2009,08,24,06,53,7.80
2009,08,24,06,54,7.80
2009,08,24,06,55,7.80
2009,08,24,06,56,7.80
2009,08,24,06,57,7.90
2009,08,24,06,58,7.90
2009,08,24,06,59,8.00
2009,08,24,07,00,8.00
2009,08,24,07,01,8.10
2009,08,24,07,02,8.10
2009,08,24,07,03,8.10
2009,08,24,07,04,8.20
2009,08,24,07,05,8.20
2009,08,24,07,06,8.20
2009,08,24,07,07,8.30
2009,08,24,07,08,8.30
2009,08,24,07,09,8.30
2009,08,24,07,10,8.40
2009,08,24,07,11,8.50
2009,08,24,07,12,8.60
2009,08,24,07,13,8.60
2009,08,24,07,14,8.60
2009,08,24,07,15,8.60
2009,08,24,07,16,8.60
2009,08,24,07,17,8.60
2009,08,24,07,18,8.60
2009,08,24,07,19,8.60
2009,08,24,07,20,8.60
2009,08,24,07,21,8.60
2009,08,24,07,22,8.60
2009,08,24,07,23,8.60
2009,08,24,07,24,8.60
2009,08,24,07,25,8.70
2009,08,24,07,26,8.80
2009,08,24,07,27,8.90
2009,08,24,07,28,9.00
2009,08,24,07,29,9.10
2009,08,24,07,30,9.20
2009,08,24,07,31,9.30
2009,08,24,07,32,9.40
2009,08,24,07,33,9.50
2009,08,24,07,34,9.50
2009,08,24,07,35,9.60
2009,08,24,07,36,9.70
2009,08,24,07,37,9.80
2009,08,24,07,38,9.90
2009,08,24,07,39,10.00
2009,08,24,07,40,10.10
2009,08,24,07,41,10.20
2009,08,24,07,42,10.30
2009,08,24,07,43,10.30
2009,08,24,07,44,10.40
2009,08,24,07,45,10.40
2009,08,24,07,46,10.50
2009,08,24,07,47,10.50
2009,08,24,07,48,10.60
2009,08,24,07,49,10.60
2009,08,24,07,50,10.60
2009,08,24,07,51,10.60
2009,08,24,07,52,10.60
2009,08,24,07,53,10.60
2009,08,24,07,54,10.60
2009,08,24,07,55,10.60
2009,08,24,07,56,10.60
2009,08,24,07,57,10.60
2009,08,24,07,58,10.60
2009,08,24,07,59,10.70
2009,08,24,08,00,10.70
2009,08,24,08,01,10.80
2009,08,24,08,02,10.90
2009,08,24,08,03,11.00
2009,08,24,08,04,11.10
2009,08,24,08,05,11.20
2009,08,24,08,06,11.30
2009,08,24,08,07,11.30
2009,08,24,08,08,11.40
2009,08,24,08,09,11.50
2009,08,24,08,10,11.70
2009,08,24,08,11,11.70
2009,08,24,08,12,11.80
2009,08,24,08,13,11.90
2009,08,24,08,14,12.00
2009,08,24,08,15,12.10
2009,08,24,08,16,12.20
2009,08,24,08,17,12.20
2009,08,24,08,18,12.30
2009,08,24,08,19,12.30
2009,08,24,08,20,12.40
2009,08,24,08,21,12.50
2009,08,24,08,22,12.50
2009,08,24,08,23,12.60
2009,08,24,08,24,12.70
2009,08,24,08,25,12.80
2009,08,24,08,26,12.90
2009,08,24,08,27,13.00
2009,08,24,08,28,13.10
2009,08,24,08,29,13.10
2009,08,24,08,30,13.20
2009,08,24,08,31,13.20
2009,08,24,08,32,13.30
2009,08,24,08,33,13.40
2009,08,24,08,34,13.40
2009,08,24,08,35,13.50
2009,08,24,08,36,13.50
2009,08,24,08,37,13.50
2009,08,24,08,38,13.60
2009,08,24,08,39,13.50
2009,08,24,08,40,13.60
2009,08,24,08,41,13.60
2009,08,24,08,42,13.60
2009,08,24,08,43,13.60
2009,08,24,08,44,13.60
2009,08,24,08,45,13.70
2009,08,24,08,46,13.70
2009,08,24,08,47,13.70
2009,08,24,08,48,13.80
2009,08,24,08,49,13.90
2009,08,24,08,50,13.90
2009,08,24,08,51,14.00
2009,08,24,08,52,14.00
2009,08,24,08,53,14.10
2009,08,24,08,54,14.10
2009,08,24,08,55,14.20
2009,08,24,08,56,14.20
2009,08,24,08,57,14.20
2009,08,24,08,58,14.30
2009,08,24,08,59,14.40
2009,08,24,09,00,14.50
2009,08,24,09,01,14.60
2009,08,24,09,02,14.70
2009,08,24,09,03,14.80
2009,08,24,09,04,14.90
2009,08,24,09,05,14.90
2009,08,24,09,06,15.00
2009,08,24,09,07,15.00
2009,08,24,09,08,15.00
2009,08,24,09,09,15.00
2009,08,24,09,10,15.10
2009,08,24,09,11,15.20
2009,08,24,09,12,15.20
2009,08,24,09,13,15.30
2009,08,24,09,14,15.30
2009,08,24,09,15,15.40
2009,08,24,09,16,15.40
2009,08,24,09,17,15.50
2009,08,24,09,18,15.60
2009,08,24,09,19,15.70
2009,08,24,09,20,15.70
2009,08,24,09,21,15.70
2009,08,24,09,22,15.70
2009,08,24,09,23,15.70
2009,08,24,09,24,15.60
2009,08,24,09,25,15.60
2009,08,24,09,26,15.60
2009,08,24,09,27,15.60
2009,08,24,09,28,15.60
2009,08,24,09,29,15.60
2009,08,24,09,30,15.60
2009,08,24,09,31,15.70
2009,08,24,09,32,15.80
2009,08,24,09,33,16.00
2009,08,24,09,34,16.10
2009,08,24,09,35,16.30
2009,08,24,09,36,16.40
2009,08,24,09,37,16.50
2009,08,24,09,38,16.50
2009,08,24,09,39,16.60
2009,08,24,09,40,16.60
2009,08,24,09,41,16.60
2009,08,24,09,42,16.50
2009,08,24,09,43,16.40
2009,08,24,09,44,16.30
2009,08,24,09,45,16.20
2009,08,24,09,46,16.10
2009,08,24,09,47,16.00
2009,08,24,09,48,16.00
2009,08,24,09,49,15.90
2009,08,24,09,50,16.00
2009,08,24,09,51,16.10
2009,08,24,09,52,16.20
2009,08,24,09,53,16.20
2009,08,24,09,54,16.30
2009,08,24,09,55,16.40
2009,08,24,09,56,16.50
2009,08,24,09,57,16.60
2009,08,24,09,58,16.60
2009,08,24,09,59,16.70
2009,08,24,10,00,16.70
2009,08,24,10,01,16.80
2009,08,24,10,02,16.80
2009,08,24,10,03,16.80
2009,08,24,10,04,16.70
2009,08,24,10,05,16.60
2009,08,24,10,06,16.60
2009,08,24,10,07,16.60
2009,08,24,10,08,16.60
2009,08,24,10,09,16.60
2009,08,24,10,10,16.60
2009,08,24,10,11,16.60
2009,08,24,10,12,16.60
2009,08,24,10,13,16.70
2009,08,24,10,14,16.80
2009,08,24,10,15,16.90
2009,08,24,10,16,16.90
2009,08,24,10,17,16.90
2009,08,24,10,18,16.90
2009,08,24,10,19,16.70
2009,08,24,10,20,16.60
2009,08,24,10,21,16.50
2009,08,24,10,22,16.40
2009,08,24,10,23,16.40
2009,08,24,10,24,16.30
2009,08,24,10,25,16.30
2009,08,24,10,26,16.30
2009,08,24,10,27,16.30
2009,08,24,10,28,16.30
2009,08,24,10,29,16.40
2009,08,24,10,30,16.40
2009,08,24,10,31,16.50
2009,08,24,10,32,16.50
2009,08,24,10,33,16.50
2009,08,24,10,34,16.60
2009,08,24,10,35,16.60
2009,08,24,10,36,16.60
2009,08,24,10,37,16.70
2009,08,24,10,38,16.80
2009,08,24,10,39,16.80
2009,08,24,10,40,16.80
2009,08,24,10,41,16.80
2009,08,24,10,42,16.90
2009,08,24,10,43,16.90
2009,08,24,10,44,16.90
2009,08,24,10,45,16.90
2009,08,24,10,46,16.90
2009,08,24,10,47,16.90
2009,08,24,10,48,16.80
2009,08,24,10,49,16.70
2009,08,24,10,50,16.60
2009,08,24,10,51,16.50
2009,08,24,10,52,16.40
2009,08,24,10,53,16.30
2009,08,24,10,54,16.30
2009,08,24,10,55,16.20
2009,08,24,10,56,16.20
2009,08,24,10,57,16.10
2009,08,24,10,58,16.00
2009,08,24,10,59,16.00
2009,08,24,11,00,15.90
2009,08,24,11,01,15.90
2009,08,24,11,02,15.90
2009,08,24,11,03,15.90
2009,08,24,11,04,15.90
2009,08,24,11,05,15.90
2009,08,24,11,06,15.90
2009,08,24,11,07,15.90
2009,08,24,11,08,15.90
2009,08,24,11,09,15.90
2009,08,24,11,10,16.00
2009,08,24,11,11,15.90
2009,08,24,11,12,15.90
2009,08,24,11,13,15.80
2009,08,24,11,14,15.80
2009,08,24,11,15,15.90
2009,08,24,11,16,15.90
2009,08,24,11,17,15.90
2009,08,24,11,18,15.90
2009,08,24,11,19,15.90
2009,08,24,11,20,15.90
2009,08,24,11,21,16.00
2009,08,24,11,22,16.10
2009,08,24,11,23,16.10
2009,08,24,11,24,16.30
2009,08,24,11,25,16.40
2009,08,24,11,26,16.50
2009,08,24,11,27,16.70
2009,08,24,11,28,16.80
2009,08,24,11,29,16.80
2009,08,24,11,30,16.80
2009,08,24,11,31,16.80
2009,08,24,11,32,16.80
2009,08,24,11,33,16.80
2009,08,24,11,34,16.90
2009,08,24,11,35,17.00
2009,08,24,11,36,17.00
2009,08,24,11,37,17.00
2009,08,24,11,38,16.90
2009,08,24,11,39,16.80
2009,08,24,11,40,16.80
2009,08,24,11,41,16.70
2009,08,24,11,42,16.70
2009,08,24,11,43,16.60
2009,08,24,11,44,16.60
2009,08,24,11,45,16.60
2009,08,24,11,46,16.60
2009,08,24,11,47,16.70
2009,08,24,11,48,16.60
2009,08,24,11,49,16.60
2009,08,24,11,50,16.50
2009,08,24,11,51,16.40
2009,08,24,11,52,16.40
2009,08,24,11,53,16.30
2009,08,24,11,54,16.30
2009,08,24,11,55,16.40
2009,08,24,11,56,16.40
2009,08,24,11,57,16.40
2009,08,24,11,58,16.40
2009,08,24,11,59,16.50
2009,08,24,12,00,16.50
2009,08,24,12,01,16.60
2009,08,24,12,02,16.70
2009,08,24,12,03,16.70
2009,08,24,12,04,16.60
2009,08,24,12,05,16.60
2009,08,24,12,06,16.60
2009,08,24,12,07,16.60
2009,08,24,12,08,16.50
2009,08,24,12,09,16.50
2009,08,24,12,10,16.40
2009,08,24,12,11,16.40
2009,08,24,12,12,16.40
2009,08,24,12,13,16.40
2009,08,24,12,14,16.40
2009,08,24,12,15,16.40
2009,08,24,12,16,16.40
2009,08,24,12,17,16.40
2009,08,24,12,18,16.40
2009,08,24,12,19,16.40
2009,08,24,12,20,16.40
2009,08,24,12,21,16.40
2009,08,24,12,22,16.40
2009,08,24,12,23,16.40
2009,08,24,12,24,16.40
2009,08,24,12,25,16.40
2009,08,24,12,26,16.40
2009,08,24,12,27,16.40
2009,08,24,12,28,16.40
2009,08,24,12,29,16.40
2009,08,24,12,30,16.50
2009,08,24,12,31,16.50
2009,08,24,12,32,16.50
2009,08,24,12,33,16.50
2009,08,24,12,34,16.40
2009,08,24,12,35,16.40
2009,08,24,12,36,16.40
2009,08,24,12,37,16.40
2009,08,24,12,38,16.30
2009,08,24,12,39,16.30
2009,08,24,12,40,16.30
2009,08,24,12,41,16.30
2009,08,24,12,42,16.30
2009,08,24,12,43,16.30
2009,08,24,12,44,16.20
2009,08,24,12,45,16.10
2009,08,24,12,46,16.10
2009,08,24,12,47,16.10
2009,08,24,12,48,16.10
2009,08,24,12,49,16.10
2009,08,24,12,50,16.00
2009,08,24,12,51,16.00
2009,08,24,12,52,16.00
2009,08,24,12,53,15.90
2009,08,24,12,54,15.90
2009,08,24,12,55,15.80
2009,08,24,12,56,15.70
2009,08,24,12,57,15.70
2009,08,24,12,58,15.70
2009,08,24,12,59,15.80
2009,08,24,13,00,15.80
2009,08,24,13,01,15.80
2009,08,24,13,02,15.70
2009,08,24,13,03,15.70
2009,08,24,13,04,15.70
2009,08,24,13,05,15.70
2009,08,24,13,06,15.70
2009,08,24,13,07,15.70
2009,08,24,13,08,15.70
2009,08,24,13,09,15.70
2009,08,24,13,10,15.80
2009,08,24,13,11,15.80
2009,08,24,13,12,15.80
2009,08,24,13,13,15.90
2009,08,24,13,14,15.90
2009,08,24,13,15,15.90
2009,08,24,13,16,15.90
2009,08,24,13,17,15.80
2009,08,24,13,18,15.80
2009,08,24,13,19,15.80
2009,08,24,13,20,15.70
2009,08,24,13,21,15.70
2009,08,24,13,22,15.70
2009,08,24,13,23,15.70
2009,08,24,13,24,15.70
2009,08,24,13,25,15.70
2009,08,24,13,26,15.60
2009,08,24,13,27,15.60
2009,08,24,13,28,15.60
2009,08,24,13,29,15.60
2009,08,24,13,30,15.70
2009,08,24,13,31,15.80
2009,08,24,13,32,15.80
2009,08,24,13,33,15.80
2009,08,24,13,34,15.80
2009,08,24,13,35,15.80
2009,08,24,13,36,15.80
2009,08,24,13,37,15.80
2009,08,24,13,38,15.80
2009,08,24,13,39,15.90
2009,08,24,13,40,15.90
2009,08,24,13,41,15.90
2009,08,24,13,42,15.90
2009,08,24,13,43,15.80
2009,08,24,13,44,15.80
2009,08,24,13,45,15.90
2009,08,24,13,46,15.90
2009,08,24,13,47,15.90
2009,08,24,13,48,15.90
2009,08,24,13,49,15.90
2009,08,24,13,50,15.80
2009,08,24,13,51,15.80
2009,08,24,13,52,15.90
2009,08,24,13,53,15.90
2009,08,24,13,54,15.80
2009,08,24,13,55,15.80
2009,08,24,13,56,15.80
2009,08,24,13,57,15.70
2009,08,24,13,58,15.60
2009,08,24,13,59,15.60
2009,08,24,14,00,15.50
2009,08,24,14,01,15.40
2009,08,24,14,02,15.40
2009,08,24,14,03,15.40
2009,08,24,14,04,15.40
2009,08,24,14,05,15.40
2009,08,24,14,06,15.40
2009,08,24,14,07,15.30
2009,08,24,14,08,15.30
2009,08,24,14,09,15.30
2009,08,24,14,10,15.30
2009,08,24,14,11,15.40
2009,08,24,14,12,15.50
2009,08,24,14,13,15.50
2009,08,24,14,14,15.60
2009,08,24,14,15,15.70
2009,08,24,14,16,15.70
2009,08,24,14,17,15.70
2009,08,24,14,18,15.80
2009,08,24,14,19,15.80
2009,08,24,14,20,15.80
2009,08,24,14,21,15.90
2009,08,24,14,22,15.90
2009,08,24,14,23,15.90
2009,08,24,14,24,15.90
2009,08,24,14,25,15.90
2009,08,24,14,26,16.10
2009,08,24,14,27,16.20
2009,08,24,14,28,16.40
2009,08,24,14,29,16.50
2009,08,24,14,30,16.60
2009,08,24,14,31,16.60
2009,08,24,14,32,16.70
2009,08,24,14,33,16.70
2009,08,24,14,34,16.80
2009,08,24,14,35,16.80
2009,08,24,14,36,16.90
2009,08,24,14,37,16.90
2009,08,24,14,38,16.80
2009,08,24,14,39,16.90
2009,08,24,14,40,16.90
2009,08,24,14,41,17.00
2009,08,24,14,42,17.10
2009,08,24,14,43,17.20
2009,08,24,14,44,17.30
2009,08,24,14,45,17.40
2009,08,24,14,46,17.40
2009,08,24,14,47,17.40
2009,08,24,14,48,17.50
2009,08,24,14,49,17.50
2009,08,24,14,50,17.50
2009,08,24,14,51,17.50
2009,08,24,14,52,17.50
2009,08,24,14,53,17.40
2009,08,24,14,54,17.30
2009,08,24,14,55,17.30
2009,08,24,14,56,17.30
2009,08,24,14,57,17.30
2009,08,24,14,58,17.30
2009,08,24,14,59,17.30
2009,08,24,15,00,17.30
2009,08,24,15,01,17.20
2009,08,24,15,02,17.10
2009,08,24,15,03,17.00
2009,08,24,15,04,16.90
2009,08,24,15,05,16.80
2009,08,24,15,06,16.80
2009,08,24,15,07,16.80
2009,08,24,15,08,16.80
2009,08,24,15,09,16.80
2009,08,24,15,10,16.90
2009,08,24,15,11,16.90
2009,08,24,15,12,16.90
2009,08,24,15,13,16.90
2009,08,24,15,14,16.90
2009,08,24,15,15,17.00
2009,08,24,15,16,17.00
2009,08,24,15,17,16.90
2009,08,24,15,18,16.90
2009,08,24,15,19,17.00
2009,08,24,15,20,17.00
2009,08,24,15,21,17.10
2009,08,24,15,22,17.20
2009,08,24,15,23,17.30
2009,08,24,15,24,17.50
2009,08,24,15,25,17.60
2009,08,24,15,26,17.60
2009,08,24,15,27,17.60
2009,08,24,15,28,17.60
2009,08,24,15,29,17.60
2009,08,24,15,30,17.70
2009,08,24,15,31,17.70
2009,08,24,15,32,17.70
2009,08,24,15,33,17.80
2009,08,24,15,34,17.80
2009,08,24,15,35,17.80
2009,08,24,15,36,17.70
2009,08,24,15,37,17.60
2009,08,24,15,38,17.50
2009,08,24,15,39,17.50
2009,08,24,15,40,17.40
2009,08,24,15,41,17.30
2009,08,24,15,42,17.30
2009,08,24,15,43,17.20
2009,08,24,15,44,17.20
2009,08,24,15,45,17.20
2009,08,24,15,46,17.20
2009,08,24,15,47,17.20
2009,08,24,15,48,17.20
2009,08,24,15,49,17.20
2009,08,24,15,50,17.20
2009,08,24,15,51,17.20
2009,08,24,15,52,17.20
2009,08,24,15,53,17.20
2009,08,24,15,54,17.30
2009,08,24,15,55,17.30
2009,08,24,15,56,17.30
2009,08,24,15,57,17.30
2009,08,24,15,58,17.30
2009,08,24,15,59,17.30
2009,08,24,16,00,17.30
2009,08,24,16,01,17.30
2009,08,24,16,02,17.30
2009,08,24,16,03,17.30
2009,08,24,16,04,17.40
2009,08,24,16,05,17.40
2009,08,24,16,06,17.40
2009,08,24,16,07,17.40
2009,08,24,16,08,17.30
2009,08,24,16,09,17.30
2009,08,24,16,10,17.30
2009,08,24,16,11,17.30
2009,08,24,16,12,17.30
2009,08,24,16,13,17.40
2009,08,24,16,14,17.40
2009,08,24,16,15,17.40
2009,08,24,16,16,17.30
2009,08,24,16,17,17.30
2009,08,24,16,18,17.30
2009,08,24,16,19,17.20
2009,08,24,16,20,17.20
2009,08,24,16,21,17.10
2009,08,24,16,22,17.00
2009,08,24,16,23,17.00
2009,08,24,16,24,16.90
2009,08,24,16,25,16.90
2009,08,24,16,26,16.80
2009,08,24,16,27,16.70
2009,08,24,16,28,16.60
2009,08,24,16,29,16.50
2009,08,24,16,30,16.40
2009,08,24,16,31,16.30
2009,08,24,16,32,16.30
2009,08,24,16,33,16.30
2009,08,24,16,34,16.40
2009,08,24,16,35,16.40
2009,08,24,16,36,16.40
2009,08,24,16,37,16.30
2009,08,24,16,38,16.30
2009,08,24,16,39,16.30
2009,08,24,16,40,16.40
2009,08,24,16,41,16.40
2009,08,24,16,42,16.50
2009,08,24,16,43,16.50
2009,08,24,16,44,16.60
2009,08,24,16,45,16.60
2009,08,24,16,46,16.60
2009,08,24,16,47,16.60
2009,08,24,16,48,16.60
2009,08,24,16,49,16.70
2009,08,24,16,50,16.70
2009,08,24,16,51,16.70
2009,08,24,16,52,16.70
2009,08,24,16,53,16.70
2009,08,24,16,54,16.80
2009,08,24,16,55,16.90
2009,08,24,16,56,16.90
2009,08,24,16,57,16.90
2009,08,24,16,58,16.90
2009,08,24,16,59,17.00
2009,08,24,17,00,17.00
2009,08,24,17,01,16.90
2009,08,24,17,02,17.00
2009,08,24,17,03,17.00
2009,08,24,17,04,17.00
2009,08,24,17,05,17.00
2009,08,24,17,06,17.00
2009,08,24,17,07,17.10
2009,08,24,17,08,17.10
2009,08,24,17,09,17.10
2009,08,24,17,10,17.10
2009,08,24,17,11,17.20
2009,08,24,17,12,17.10
2009,08,24,17,13,17.10
2009,08,24,17,14,17.10
2009,08,24,17,15,17.10
2009,08,24,17,16,17.10
2009,08,24,17,17,17.10
2009,08,24,17,18,17.10
2009,08,24,17,19,17.10
2009,08,24,17,20,17.20
2009,08,24,17,21,17.20
2009,08,24,17,22,17.30
2009,08,24,17,23,17.30
2009,08,24,17,24,17.30
2009,08,24,17,25,17.30
2009,08,24,17,26,17.40
2009,08,24,17,27,17.40
2009,08,24,17,28,17.50
2009,08,24,17,29,17.50
2009,08,24,17,30,17.60
2009,08,24,17,31,17.70